Greybull, WY

5:22 PM MST on December 09, 2019 (GMT -0700)
South Big Horn County

Weather History for KGEY - October, 2019

Change the Weather History Date:

Saturday, October 12, 2019

  Actual Average Record
Temperature  
Mean Temperature 37 °F 48 °F  
Max Temperature 54 °F 62 °F 76 °F (2012)
Min Temperature 19 °F 34 °F 18 °F (2009)
Degree Days  
Heating Degree Days 28 17  
Month to date heating degree days 294 184  
Since 1 July heating degree days 469 415  
Cooling Degree Days 0 0  
Month to date cooling degree days 0 0  
Year to date cooling degree days 733 669  
Moisture  
Dew Point 22 °F    
Average Humidity 60    
Maximum Humidity 92    
Minimum Humidity 28    
Precipitation  
Precipitation 0.00 in 0.03 in 0.04 in (2008)
Month to date precipitation 0.26 0.30  
Year to date precipitation 7.58 6.63  
Sea Level Pressure  
Sea Level Pressure 30.12 in    
Wind  
Wind Speed 2 mph (SE)    
Max Wind Speed 7 mph    
Max Gust Speed 11 mph    
Visibility 10 miles    
Events      
T = Trace of Precipitation, MM = Missing Value Source: NWS Daily Summary

Daily Weather History Graph

Daily Weather History Graph

Search for Another Location

Airport or City:

Astronomy

Oct. 12, 2019 Rise Set
Actual Time 7:23 AM MDT 6:33 PM MDT
Civil Twilight 6:54 AM MDT 7:02 PM MDT
Nautical Twilight 6:20 AM MDT 7:36 PM MDT
Astronomical Twilight 5:46 AM MDT 8:09 PM MDT
Moon 6:35 PM MDT (10/12) 5:57 AM MDT (10/12)
Length of Visible Light 12h 08m
Length of Day
11h 09m
Waxing Gibbous, 99% of the Moon is Illuminated
Oct 12
Waxing Gibbous
Oct 13
Full
Oct 21
Last Quarter
Oct 27
New
Nov 4
First Quarter

Hourly Weather History & Observations

Time (MDT) Temp. Windchill Dew Point Humidity Pressure Visibility Wind Dir Wind Speed Gust Speed Precip Events Conditions
12:53 AM 26.1 °F 20.5 °F 21.9 °F 84% 30.23 in 10.0 mi SE 4.6 mph - N/A   Clear
1:53 AM 26.1 °F 20.5 °F 21.0 °F 81% 30.22 in 10.0 mi SE 4.6 mph - N/A   Clear
2:53 AM 23.0 °F - 19.9 °F 88% 30.22 in 10.0 mi Calm Calm - N/A   Clear
3:53 AM 24.1 °F - 19.9 °F 84% 30.20 in 10.0 mi Calm Calm - N/A   Clear
4:53 AM 21.9 °F - 19.0 °F 89% 30.21 in 10.0 mi Calm Calm - N/A   Clear
5:53 AM 21.0 °F 16.2 °F 19.0 °F 92% 30.20 in 10.0 mi SSW 3.5 mph - N/A   Clear
6:53 AM 19.9 °F - 18.0 °F 92% 30.21 in 10.0 mi Calm Calm - N/A   Clear
7:53 AM 23.0 °F - 19.0 °F 85% 30.21 in 10.0 mi Calm Calm - N/A   Clear
8:53 AM 26.1 °F - 23.0 °F 88% 30.21 in 10.0 mi Calm Calm - N/A   Clear
9:53 AM 30.9 °F - 24.1 °F 76% 30.19 in 10.0 mi Calm Calm - N/A   Clear
10:53 AM 36.0 °F 33.3 °F 24.1 °F 62% 30.16 in 10.0 mi ESE 3.5 mph - N/A   Clear
11:53 AM 41.0 °F 39.0 °F 24.1 °F 51% 30.13 in 10.0 mi Variable 3.5 mph - N/A   Clear
12:53 PM 46.0 °F - 23.0 °F 40% 30.09 in 10.0 mi North - - N/A   Clear
1:53 PM 50.0 °F - 21.9 °F 33% 30.05 in 10.0 mi ESE 3.5 mph - N/A   Clear
2:53 PM 52.0 °F - 21.9 °F 31% 30.03 in 10.0 mi Variable 3.5 mph - N/A   Clear
3:53 PM 53.1 °F - 21.0 °F 29% 30.01 in 10.0 mi Calm Calm - N/A   Clear
4:53 PM 54.0 °F - 21.9 °F 29% 30.00 in 10.0 mi South 4.6 mph - N/A   Clear
5:53 PM 54.0 °F - 21.9 °F 29% 30.00 in 10.0 mi Calm Calm - N/A   Clear
6:53 PM 50.0 °F - 21.0 °F 32% 30.01 in 10.0 mi Calm Calm - N/A   Clear
7:53 PM 44.1 °F - 23.0 °F 43% 30.03 in 10.0 mi Calm Calm - N/A   Clear
8:53 PM 36.0 °F 31.1 °F 27.0 °F 70% 30.05 in 10.0 mi ESE 5.8 mph - N/A   Clear
9:53 PM 35.1 °F - 27.0 °F 72% 30.04 in 10.0 mi North - - N/A   Clear
10:53 PM 34.0 °F 28.8 °F 26.1 °F 73% 30.04 in 10.0 mi SE 5.8 mph - N/A   Clear
11:53 PM 30.0 °F - 25.0 °F 82% 30.03 in 10.0 mi North - - N/A   Clear